210  
AXUS43 KGID 280602  
MISGRI  
 
GID CWA HOURLY WEATHER ROUNDUP  
NATIONAL WEATHER SERVICE HASTINGS NE  
100 AM CDT WED SEP 28 2016  
 
NOTE: "FAIR" INDICATES FEW OR NO CLOUDS BELOW 12,000 FEET WITH NO  
SIGNIFICANT WEATHER AND/OR OBSTRUCTIONS TO VISIBILITY.  
   
..SOUTH CENTRAL NEBRASKA
 
 
 
CITY SKY/WX TMP DP RH WIND PRES REMARKS  
GRAND ISLAND CLEAR 52 46 80 NW3 29.98R  
HASTINGS CLEAR 57 46 66 CALM 29.98R  
KEARNEY CLEAR 55 43 62 NW5 29.99R  
ORD CLEAR 49 43 80 CALM 29.99R  
YORK CLEAR 52 48 87 NW5 29.95S  
AURORA CLEAR 54 49 83 N7 29.96S  
LEXINGTON CLEAR 49 44 81 W7 30.02S  
HOLDREGE CLEAR 55 44 67 NW5 30.00R  
HEBRON CLEAR 54 50 87 W3 29.93R  
   
..NEBRASKA PANHANDLE
 
 
 
CITY SKY/WX TMP DP RH WIND PRES REMARKS  
CHADRON CLEAR 51 43 74 SW6 30.11R  
ALLIANCE CLEAR 43 39 86 NW3 30.13R  
SCOTTSBLUFF CLEAR 53 42 66 N3 30.15R  
SIDNEY CLEAR 50 38 63 NW10 30.15R  
   
..WESTERN AND NORTH CENTRAL NEBRASKA
 
 
 
CITY SKY/WX TMP DP RH WIND PRES REMARKS  
VALENTINE CLEAR 48 40 73 NW5 30.05R  
AINSWORTH CLEAR 49 44 81 W6 30.04R  
ONEILL CLEAR 52 44 74 N5 30.00S  
BROKEN BOW CLEAR 49 43 80 W5 30.02R  
IMPERIAL CLEAR 55 37 50 W5 30.08R  
NORTH PLATTE CLEAR 50 44 80 CALM 30.06R  
MCCOOK CLEAR 52 44 74 W5 30.03R  
   
..EASTERN NEBRASKA
 
 
 
CITY SKY/WX TMP DP RH WIND PRES REMARKS  
NORFOLK CLEAR 51 45 79 W7 29.96R HAZE  
SO SIOUX CITY CLEAR 51 45 79 NW5 29.93R  
TEKAMAH CLEAR 50 47 89 N6 29.92R  
COLUMBUS CLEAR 57 43 58 NW6 29.95S  
ALBION CLEAR 49 45 87 NW6 29.98R  
OMAHA EPPLEY CLEAR 52 48 86 N6 29.91R  
OFFUTT AFB CLEAR 54 52 93 NW5 29.89R  
MILLARD CLEAR 56 52 88 CALM 29.91R  
LINCOLN CLEAR 56 51 84 CALM 29.93R  
NEBRASKA CITY CLEAR 60 40 48 W5 29.89S  
BEATRICE CLEAR 53 50 88 W3 29.91R  
FALLS CITY CLEAR 56 52 86 W5 29.87R  
   
..NORTHERN KANSAS
 
 
 
CITY SKY/WX TMP DP RH WIND PRES REMARKS  
GOODLAND CLEAR 56 39 53 SW8 30.08S  
HILL CITY CLEAR 56 48 74 NW7 30.00R  
NORTON CLEAR 57 39 51 NW7 30.00R  
PHILLIPSBURG CLEAR 55 46 71 NW8 29.98R  
SMITH CENTER CLEAR 55 48 76 CALM 29.96S  
HAYS CLEAR 54 43 66 W6 29.96S  
RUSSELL CLEAR 60 51 72 S10 29.93S  
CONCORDIA CLEAR 59 53 80 W9 29.92R HAZE  
SALINA CLEAR 64 53 67 CALM 29.91R  
TOPEKA CLEAR 58 55 90 CALM 29.87S  
 
CLICK HERE TO GO TO PREVIOUS BULLETINS.

The Nexlab NE Page
The Nexlab KS Page Main Text Page